Theta_e
297 297 297 296 296 295 295 295 295 295 295 294 294 294 293 293 292 292 292 291 290 290 289 289 289 288 288 288 288 288 288 287 287 287 287 287 287 287 287 287 287 286
297 297 296 296 296 296 295 295 295 295 294 294 294 293 293 292 292 291 290 290 289 289 289 288 288 288 288 287 287 287 287 287 287 287 287 287 287 287 287 286 286 286
297 296 296 296 296 296 295 295 294 294 294 294 293 293 292 292 291 290 290 289 289 289 289 288 288 288 287 287 287 287 287 287 287 287 287 287 287 286 286 286 286 286
296 296 295 296 295 295 295 294 294 294 294 293 293 292 292 291 290 290 290 290 289 289 289 288 288 287 287 287 287 287 287 287 287 287 287 286 286 286 286 286 285 285
295 295 295 295 295 294 294 294 294 293 293 293 292 292 291 291 291 290 290 290 289 289 288 288 288 287 287 287 287 287 287 287 287 286 286 286 286 286 286 285 285 285
295 295 295 295 294 294 294 293 293 293 293 292 292 292 291 291 291 291 290 290 289 289 288 288 288 287 287 287 287 287 287 287 286 286 286 286 286 285 285 285 285 285
295 295 294 294 294 293 293 293 293 293 292 292 292 291 291 291 291 290 290 289 289 288 288 288 288 288 287 287 287 287 287 287 286 286 286 286 285 285 285 285 285 284
294 294 293 293 293 293 292 292 292 292 292 291 291 291 291 291 290 290 290 289 289 288 288 288 288 288 288 288 287 287 287 287 286 286 286 285 285 285 285 284 284 284
293 293 293 292 292 292 292 292 292 291 291 291 290 290 290 290 290 290 289 289 288 288 288 288 288 288 288 288 287 287 287 287 286 286 285 285 285 285 284 284 284 284
293 292 292 292 292 291 292 291 291 291 291 290 290 290 290 290 289 289 289 288 288 288 288 288 288 288 288 288 287 287 287 286 286 285 285 285 284 284 284 284 284 284
292 291 291 291 291 291 291 291 291 291 290 290 290 290 289 289 289 289 288 288 288 288 288 288 288 288 288 287 287 287 287 286 286 285 285 284 284 284 284 284 284 284
291 291 291 291 291 291 291 291 291 290 290 290 289 289 289 289 289 288 288 288 288 288 288 288 288 288 287 287 287 287 287 286 285 285 284 284 284 284 284 284 284 284
291 291 291 291 291 291 291 291 290 290 289 289 289 289 289 289 288 288 288 288 288 288 288 288 288 288 288 287 287 287 286 286 285 284 284 284 284 283 283 283 283 283
290 290 290 290 290 291 291 291 290 289 289 289 288 288 288 288 288 288 288 288 288 288 288 288 288 288 288 287 287 286 286 285 285 284 284 283 283 283 283 283 283 283
290 290 290 290 290 291 291 290 290 289 289 288 288 288 288 288 288 288 288 288 288 288 288 288 288 288 287 287 286 286 286 285 284 284 283 283 283 283 283 283 283 283
290 290 290 290 290 291 291 290 289 289 289 288 288 288 288 288 288 288 288 288 288 288 288 287 287 287 287 287 286 286 285 285 284 283 283 283 283 283 283 283 283 283
289 289 290 290 290 291 290 290 289 289 288 288 288 288 288 288 288 288 288 288 288 287 287 287 287 287 287 286 286 285 285 284 284 283 283 283 283 283 283 283 283 282
289 289 290 290 290 290 290 290 289 289 288 288 288 288 288 288 288 288 288 288 287 287 287 286 286 286 286 286 285 285 285 284 284 283 283 283 282 283 282 282 282 282
290 289 290 290 290 290 290 290 289 289 288 288 288 288 288 288 288 288 288 288 287 287 286 286 286 286 286 286 285 285 284 284 283 283 282 282 282 282 282 282 282 282
290 289 289 290 290 290 290 290 289 289 288 288 288 288 288 288 288 288 288 288 287 287 286 286 286 285 286 286 285 285 284 284 283 283 282 282 282 282 282 282 282 282
290 289 289 290 290 290 290 290 289 289 288 288 288 288 288 288 288 288 288 288 287 287 286 286 285 285 285 285 285 285 284 284 283 282 282 282 282 282 282 282 282 282
290 289 289 289 290 290 290 290 289 289 288 288 288 288 288 288 288 288 288 288 287 287 286 286 285 285 285 285 285 285 284 284 283 282 282 282 282 282 282 282 282 282
291 289 289 289 290 290 290 290 289 289 288 288 288 288 288 288 288 288 288 287 287 287 286 286 285 285 285 285 285 285 284 283 282 282 282 282 282 282 282 282 282 281
292 290 289 289 289 290 290 290 290 289 288 288 288 288 288 288 288 288 288 287 287 287 286 286 285 285 285 285 285 285 284 283 282 282 281 282 282 282 282 281 281 281
292 291 289 288 289 289 290 290 290 289 288 288 288 288 288 288 288 288 287 287 287 287 286 286 285 285 285 285 285 285 284 283 282 281 281 281 281 281 281 281 281 280
293 291 289 288 288 289 289 290 290 289 288 288 288 288 288 288 288 287 287 287 287 287 286 286 286 285 285 285 284 284 284 283 282 281 281 281 281 281 281 281 281 280
Wind_Speed
12 12 11 10 9 8 6 5 3 2 1 2 4 6 8 9 9 10 10 11 13 13 14 14 15 15 15 15 15 14 15 15 15 15 15 16 16 16 16 17 17 17
13 12 11 10 9 7 6 5 4 3 1 1 3 5 7 8 8 9 10 11 12 13 14 14 14 14 14 14 15 15 15 15 15 15 15 16 16 17 17 17 18 18
14 13 12 10 8 7 7 7 6 4 2 1 3 4 5 6 7 9 10 12 13 14 15 15 15 15 15 15 16 16 16 16 16 16 17 17 18 18 18 18 18 19
15 13 12 10 10 9 9 8 6 4 2 0 1 3 4 6 7 9 11 12 14 15 15 15 16 16 16 17 17 17 18 18 18 17 17 17 18 18 18 18 19 19
16 14 13 12 11 11 9 7 5 4 3 1 1 2 4 6 7 9 11 13 14 15 15 15 16 16 17 17 18 18 18 18 17 17 17 17 17 18 18 19 19 20
17 16 15 14 13 11 9 7 6 5 4 3 2 3 4 5 7 9 11 13 14 15 15 15 16 16 17 18 18 18 18 18 18 17 17 18 18 19 19 20 21 21
18 17 16 15 13 11 9 8 7 7 6 4 3 4 4 6 8 10 12 13 14 15 15 15 16 17 18 18 19 19 19 19 19 19 19 19 19 20 20 20 21 22
19 18 17 16 14 12 10 9 9 8 7 6 5 4 5 6 8 10 12 13 14 14 15 15 17 18 19 20 20 20 21 20 20 20 19 20 20 20 20 21 22 22
21 19 18 16 14 13 12 11 11 10 8 6 5 5 5 7 9 10 12 13 14 14 15 17 18 19 20 20 21 21 21 21 20 20 20 20 20 20 21 21 21 22
22 20 19 17 15 14 14 13 12 11 9 7 6 6 6 7 9 11 12 13 14 15 16 17 18 19 20 20 21 21 21 21 20 20 20 20 20 20 21 21 21 22
23 21 20 18 17 16 15 14 13 11 9 7 6 6 7 8 9 11 12 14 15 16 17 18 18 19 19 20 21 21 21 21 20 20 19 19 20 20 21 21 21 22
24 23 21 20 18 17 16 15 14 12 9 7 6 7 8 9 10 11 13 14 15 16 17 18 18 19 19 20 20 21 20 20 20 19 19 19 20 20 21 21 22 22
25 24 22 21 20 19 17 16 14 11 9 7 7 7 8 9 11 12 13 14 15 16 17 18 18 19 19 20 20 20 20 20 20 20 20 20 20 21 21 22 22 22
26 25 24 22 21 19 18 16 14 12 9 8 8 8 9 10 11 12 13 14 15 16 17 18 19 19 19 19 19 20 20 20 20 20 20 20 20 21 21 22 23 23
28 27 26 24 22 21 19 17 15 12 10 9 9 9 9 10 11 12 13 14 15 17 18 19 19 19 19 19 19 20 20 20 20 20 21 21 21 21 22 22 23 23
30 30 28 26 23 21 20 18 15 13 11 10 10 10 10 10 11 12 13 15 16 18 19 19 19 19 19 19 20 20 21 21 21 21 21 22 22 22 22 23 23 24
32 31 29 26 24 22 21 19 16 14 12 12 11 10 10 10 11 12 13 15 17 18 19 19 19 19 19 19 20 20 22 22 22 22 22 22 23 23 23 23 24 24
34 32 29 27 25 23 22 19 17 15 14 13 12 11 10 10 11 12 13 15 16 18 19 19 20 20 20 20 20 20 22 23 23 24 24 24 24 24 24 24 25 26
36 33 31 29 27 24 22 21 19 17 16 15 14 12 11 11 11 12 13 15 17 18 19 20 20 20 20 20 20 21 22 24 24 24 25 25 25 25 25 25 26 27
37 34 32 31 28 25 24 23 21 18 17 17 15 14 13 12 12 12 14 16 17 18 19 19 20 20 20 20 21 21 22 24 25 25 25 26 26 26 26 27 27 28
37 34 33 32 29 27 26 24 22 21 19 18 17 15 14 13 13 13 14 16 17 18 19 19 20 20 20 21 21 22 23 25 25 26 26 26 26 26 27 27 28 29
37 35 34 34 31 29 28 26 24 23 21 20 19 17 16 15 15 15 15 16 17 18 19 19 19 21 21 21 22 23 24 25 26 26 27 27 27 27 28 28 29 30
37 36 36 36 33 31 29 27 26 24 23 22 21 20 18 17 17 16 16 17 17 18 19 19 19 21 22 22 23 24 25 26 26 27 27 27 27 28 29 29 30 30
36 36 37 37 35 33 31 29 28 26 24 24 23 22 20 19 19 18 17 17 18 19 20 20 20 21 22 23 23 24 26 27 27 27 28 28 28 29 30 30 31 31
34 36 38 38 36 34 32 30 29 27 26 26 25 24 23 22 21 20 18 17 18 19 20 21 21 21 22 23 24 24 26 27 28 28 28 29 29 30 31 31 31 31
34 35 37 37 36 35 33 32 30 29 28 28 27 27 25 25 23 21 20 18 18 20 21 21 22 22 22 23 24 25 26 27 28 28 28 29 30 31 31 32 31 31
Wind_Direction
171 172 168 161 155 151 153 154 153 149 108 42 15 12 11 8 6 3 360 359 358 357 356 354 352 351 349 348 346 346 345 345 345 344 343 343 342 341 340 338 337 335
179 175 169 165 164 166 172 177 179 180 180 20 12 11 10 6 2 0 0 0 359 357 355 354 352 351 350 349 348 348 347 347 347 345 344 344 342 341 339 337 336 334
180 176 172 174 179 183 186 187 189 190 197 357 14 11 6 3 1 1 1 359 357 355 352 351 350 350 349 349 349 348 348 347 347 346 344 343 340 338 337 335 334 333
181 179 180 186 191 194 194 192 194 195 199 243 8 5 360 359 359 358 355 352 351 349 347 347 346 347 347 346 346 345 344 343 343 342 340 338 336 334 334 333 333 332
184 185 190 197 199 198 198 196 198 204 208 228 312 343 348 351 350 348 346 345 344 343 342 343 343 343 343 343 342 341 340 339 338 337 335 334 334 333 334 334 334 335
189 195 199 202 202 201 201 201 206 213 219 232 269 311 327 335 338 340 340 340 339 338 338 338 340 341 341 340 339 338 337 336 335 334 333 333 334 334 335 335 335 335
197 202 204 205 204 203 203 207 215 221 224 235 257 288 308 323 332 336 336 335 334 333 333 335 337 339 339 338 337 336 335 334 333 333 332 332 333 333 334 334 334 334
204 206 206 206 206 205 207 213 221 225 228 238 256 277 301 320 328 332 332 330 329 329 331 333 334 335 335 335 334 334 333 332 331 331 330 330 330 330 332 332 332 332
208 208 208 208 207 207 211 218 224 227 232 243 258 277 302 319 326 329 327 325 326 327 329 330 331 331 331 331 331 331 330 330 329 329 328 327 327 328 329 329 329 329
210 210 209 209 209 211 216 222 226 229 235 245 262 284 305 317 322 324 324 324 325 325 326 327 327 328 328 328 328 328 328 327 326 326 324 324 324 324 326 326 326 326
212 212 212 211 212 215 220 225 228 231 236 249 268 288 305 314 319 321 322 324 324 324 324 324 324 325 326 326 326 325 325 324 322 321 320 320 321 322 323 324 324 324
213 214 214 214 215 219 223 227 229 232 237 252 272 290 303 310 315 319 321 323 323 323 322 322 323 324 324 324 324 323 322 320 319 318 317 317 319 321 321 321 321 321
216 217 217 216 218 221 224 228 229 232 240 254 273 288 298 306 312 318 321 321 321 321 321 322 323 323 324 323 321 320 318 317 316 315 315 316 317 318 319 319 319 319
219 219 219 218 219 221 225 228 229 233 243 256 270 282 292 302 310 316 319 320 320 320 320 321 322 322 322 320 318 317 316 314 314 312 312 313 314 315 316 315 316 317
220 220 220 218 219 222 225 227 229 233 243 255 265 277 289 299 308 313 317 318 319 320 320 320 321 320 320 318 316 314 312 311 310 309 309 310 311 312 313 313 314 315
221 221 220 219 220 224 226 226 227 232 242 252 261 273 284 295 305 311 315 317 319 319 319 319 319 318 317 316 313 311 309 308 307 307 307 308 308 309 310 312 313 314
223 222 220 220 222 225 226 226 227 233 241 250 258 268 279 289 301 308 313 317 319 320 320 319 319 317 315 313 311 309 307 307 307 307 307 307 307 308 310 312 313 315
226 223 221 221 223 226 227 226 228 233 240 248 254 263 273 283 294 303 311 316 319 322 322 320 317 314 312 311 309 308 306 306 306 307 307 307 307 308 311 312 313 315
228 224 221 223 225 226 227 227 229 234 240 247 251 257 266 275 286 298 308 314 319 323 322 319 315 311 311 311 309 307 305 304 305 306 306 306 308 309 311 312 313 315
229 224 222 225 226 227 228 228 230 235 239 244 248 253 259 268 280 294 304 310 316 321 321 318 314 310 310 311 310 307 305 303 304 305 305 306 307 309 311 312 313 315
230 225 223 226 227 228 230 230 231 235 238 242 246 249 255 264 277 289 299 305 311 318 319 317 314 311 311 312 311 308 304 303 303 303 304 305 306 308 309 310 312 314
233 227 225 227 228 229 231 231 233 235 238 241 243 246 252 262 273 283 291 298 306 314 317 317 314 313 313 313 311 307 304 302 302 302 302 303 304 306 307 309 311 313
236 230 228 229 229 230 233 234 235 236 237 240 243 246 252 260 269 276 283 291 301 310 315 315 314 313 313 312 310 307 303 301 301 300 301 301 302 304 306 308 311 313
239 235 232 231 231 232 235 237 237 236 237 240 243 248 252 257 263 269 276 286 297 306 311 313 312 313 313 312 309 306 302 300 299 299 299 301 302 303 305 308 311 313
241 238 235 234 233 235 237 240 239 237 238 241 244 248 250 254 258 264 271 281 292 300 306 309 310 311 312 311 309 306 302 299 298 298 298 299 300 302 305 308 311 314
242 240 239 237 236 237 239 241 241 238 238 241 244 247 250 253 256 261 267 276 286 295 300 306 309 310 311 310 309 306 302 298 296 296 297 298 299 301 304 308 311 313